Date,TemperatureHighF,TemperatureAvgF,TemperatureLowF,DewpointHighF,DewpointAvgF,DewpointLowF,HumidityHigh,HumidityAvg,HumidityLow,PressureMaxIn,PressureMinIn,WindSpeedMaxMPH,WindSpeedAvgMPH,GustSpeedMaxMPH,PrecipitationSumIn
2013-1-1,48.9,42.7,34.6,39.5,30.7,22.7,86,63,46,30.31,30.02,12,3,12,0.00
2013-1-2,45.7,35.3,28.5,27.3,24.8,22.3,83,66,47,30.40,30.28,12,1,12,0.00
2013-1-3,40.2,34.1,25.7,30.6,26.1,22.0,93,73,56,30.56,30.38,13,2,13,0.00
2013-1-4,35.1,33.5,31.6,33.2,31.7,30.3,95,93,90,30.56,30.42,8,0,8,0.27
2013-1-5,53.9,41.4,32.9,35.9,33.1,30.3,95,75,47,30.43,30.27,15,2,15,0.26
2013-1-6,54.2,40.0,28.1,31.4,27.5,23.1,86,63,36,30.51,30.35,11,1,11,0.00
2013-1-7,54.7,39.8,29.2,33.6,28.6,24.5,85,66,35,30.37,30.09,12,1,12,0.00
2013-1-8,48.2,43.7,37.3,47.0,40.7,30.4,96,89,74,30.09,29.94,20,3,20,0.07
2013-1-9,48.2,45.9,43.4,47.1,44.5,42.1,96,95,92,30.17,29.89,24,3,24,0.92
2013-1-10,61.9,48.6,41.7,46.2,41.8,39.2,96,79,46,30.08,29.94,19,3,19,0.00
2013-1-11,72.4,58.5,46.0,53.8,46.5,40.2,87,66,38,29.95,29.73,23,5,23,0.00
2013-1-12,59.1,50.6,34.2,54.7,36.8,23.6,87,61,38,30.02,29.74,18,4,18,0.00
2013-1-13,40.8,32.5,25.2,23.9,21.1,17.9,79,63,49,30.30,30.02,19,4,19,0.00
2013-1-14,42.9,31.1,22.5,23.8,18.7,13.8,73,60,44,30.37,30.21,16,5,16,0.00
2013-1-15,40.2,33.0,25.4,21.8,19.2,16.6,79,58,40,30.36,30.23,17,3,17,0.00
2013-1-16,53.9,36.6,20.6,29.3,22.3,14.8,86,60,26,30.43,30.27,25,3,25,0.00
2013-1-17,59.4,44.9,33.3,32.3,29.5,27.0,79,58,32,30.57,30.39,13,2,13,0.00
2013-1-18,64.8,45.2,27.0,34.4,30.1,24.1,91,60,28,30.53,30.27,17,2,18,0.00
2013-1-19,71.5,53.5,40.3,36.8,32.3,28.0,72,48,21,30.27,30.11,21,3,21,0.00
2013-1-20,71.0,49.8,31.6,35.8,29.5,23.8,80,50,18,30.28,30.08,10,1,10,0.00
2013-1-21,55.9,44.2,33.2,35.1,31.2,26.8,81,61,44,30.32,30.15,14,2,14,0.00
2013-1-22,68.2,50.8,33.9,52.0,39.6,26.4,87,67,45,30.32,30.17,17,2,17,0.00
2013-1-23,78.0,61.1,48.5,56.6,50.1,43.6,95,72,31,30.27,30.12,17,3,17,0.00
2013-1-24,83.2,65.3,53.6,57.6,50.3,42.8,93,64,25,30.19,30.01,18,4,18,0.00
2013-1-25,72.0,60.4,47.9,54.9,45.9,35.4,85,61,34,30.15,30.01,15,3,15,0.00
2013-1-26,71.0,54.7,41.9,58.0,45.7,35.1,88,72,61,30.17,29.99,14,2,14,0.00
2013-1-27,78.3,66.0,58.4,57.3,54.8,51.8,85,69,43,30.00,29.84,24,5,24,0.00
2013-1-28,78.4,69.2,62.7,61.9,59.5,56.8,88,73,50,29.90,29.69,28,6,28,0.00
2013-1-29,69.5,60.8,48.6,62.7,40.5,15.9,87,53,24,29.84,29.58,38,9,38,0.03
2013-1-30,53.2,44.1,35.9,26.5,16.8,7.9,63,36,17,30.22,29.83,27,6,27,0.00
2013-1-31,68.3,49.4,30.9,26.5,18.8,12.4,55,32,15,30.30,30.16,20,4,20,0.00
2013-2-1,68.8,52.6,38.6,41.7,30.4,20.5,66,45,25,30.33,30.11,22,3,22,0.00
2013-2-2,64.3,54.6,44.2,47.6,37.5,28.2,90,56,29,30.34,30.12,20,4,20,0.00
2013-2-3,68.7,53.0,35.0,49.8,38.6,26.4,73,59,38,30.35,29.91,21,3,21,0.00
2013-2-4,75.0,62.7,52.1,50.5,40.9,29.9,77,49,22,29.92,29.77,18,4,18,0.00
2013-2-5,75.3,57.3,37.5,43.9,35.2,30.7,79,47,22,30.02,29.88,9,1,9,0.00
2013-2-6,78.2,61.3,44.5,56.2,46.7,36.2,84,61,35,29.95,29.75,15,2,15,0.00
2013-2-7,72.3,62.3,52.7,57.3,45.8,33.8,94,60,25,30.15,29.83,18,5,18,0.00
2013-2-8,64.9,52.5,39.7,39.4,30.1,25.3,71,45,23,30.27,30.02,16,3,16,0.00
2013-2-9,69.2,59.6,50.6,58.7,46.6,26.2,91,63,36,30.05,29.62,29,7,29,0.07
2013-2-10,66.3,55.9,45.4,58.5,19.5,5.2,92,27,9,29.97,29.71,23,4,23,0.07
2013-2-11,63.9,52.1,45.3,42.9,35.4,19.8,77,54,33,30.07,29.93,20,4,20,0.00
2013-2-12,62.6,50.2,36.7,48.9,36.6,21.6,95,65,22,30.14,29.87,32,6,32,0.00
2013-2-13,62.7,44.3,28.1,33.1,25.6,16.4,89,55,17,30.21,30.03,15,2,15,0.00
2013-2-14,70.8,50.6,31.1,29.5,22.5,14.0,76,38,12,30.12,29.96,15,2,15,0.00
2013-2-15,52.4,45.0,32.9,35.1,28.1,17.5,76,53,30,30.45,30.06,20,5,20,0.00
2013-2-16,67.0,45.9,26.3,27.0,21.2,15.2,70,42,14,30.50,30.18,18,2,18,0.00
2013-2-17,71.2,57.5,44.3,47.1,30.9,20.5,69,39,15,30.18,29.81,24,7,24,0.00
2013-2-18,72.3,60.9,48.9,50.7,33.9,12.5,83,45,10,30.09,29.77,26,7,26,0.00
2013-2-19,60.5,51.9,41.7,33.1,27.8,24.5,59,41,26,30.24,30.02,20,4,20,0.00
2013-2-20,55.0,51.1,48.6,51.4,44.8,32.7,96,81,43,30.05,29.58,20,5,20,0.06
2013-2-21,65.7,54.3,44.8,55.2,31.8,19.0,97,50,18,29.89,29.52,30,5,30,0.03
2013-2-22,55.4,41.8,29.4,36.0,27.4,20.4,82,59,35,30.15,29.89,16,4,16,0.00
2013-2-23,68.0,47.5,28.8,31.0,21.5,8.2,87,45,10,30.13,29.85,19,2,19,0.00
2013-2-24,78.3,58.9,38.9,53.3,37.0,19.8,75,47,18,29.86,29.48,24,5,24,0.00
2013-2-25,61.2,43.2,39.1,53.6,29.4,20.7,76,58,41,29.97,29.54,45,10,45,0.03
2013-2-26,68.3,47.2,26.9,26.6,22.8,14.5,81,44,15,30.03,29.79,13,2,13,0.00
2013-2-27,57.2,46.9,35.5,30.8,21.8,8.7,74,41,15,30.31,29.83,22,5,22,0.00
2013-2-28,60.2,44.7,28.2,28.0,22.0,16.1,76,45,19,30.40,30.24,14,2,14,0.00
2013-3-1,63.6,46.8,27.5,22.8,18.3,12.3,70,36,14,30.36,30.23,27,3,27,0.00
2013-3-2,68.4,50.5,32.5,29.3,26.0,21.4,72,41,21,30.47,30.23,15,2,15,0.00
2013-3-3,78.6,60.5,38.6,29.0,23.0,15.9,64,30,10,30.23,29.76,28,6,28,0.00
2013-3-4,83.8,68.5,52.1,32.0,19.0,-0.2,37,18,4,29.79,29.63,28,5,28,0.00
2013-3-5,66.5,50.1,37.8,41.0,20.9,10.7,59,35,12,30.40,29.77,32,6,32,0.00
2013-3-6,66.3,48.3,29.7,21.2,14.8,8.2,58,29,13,30.45,30.16,19,3,19,0.00
2013-3-7,73.1,57.4,43.6,48.8,33.7,15.3,72,42,27,30.16,30.00,22,4,22,0.00
2013-3-8,71.1,65.0,55.2,58.5,56.3,46.8,86,74,62,30.01,29.80,27,6,27,0.00
2013-3-9,81.0,69.3,62.3,59.1,47.9,20.3,81,52,19,29.80,29.58,28,7,28,0.00
2013-3-10,62.7,53.0,44.3,30.0,20.8,12.1,49,30,17,30.14,29.75,25,7,25,0.00
2013-3-11,72.5,51.6,30.7,27.3,17.2,11.9,51,28,13,30.22,29.98,15,2,15,0.00
2013-3-12,74.0,58.2,44.0,28.7,23.6,15.7,46,28,11,30.30,30.00,21,5,21,0.00
2013-3-13,78.5,58.7,41.4,37.2,28.5,24.3,52,34,15,30.42,30.20,18,2,18,0.00
2013-3-14,80.3,64.9,52.3,46.8,39.2,31.3,65,41,20,30.27,30.10,22,5,23,0.00
2013-3-15,85.1,68.6,54.7,51.5,43.4,37.8,75,44,19,30.13,29.85,18,5,20,0.00
2013-3-16,92.2,73.5,57.7,49.0,41.5,28.9,69,37,11,29.85,29.56,23,6,23,0.00
2013-3-17,81.8,66.6,51.6,49.6,41.6,34.1,70,43,19,29.78,29.58,18,3,18,0.00
2013-3-18,76.4,65.7,57.7,40.5,33.8,19.5,49,31,20,29.91,29.67,16,3,16,0.00
2013-3-19,86.0,64.6,46.1,48.5,39.8,27.9,80,48,14,30.06,29.75,27,4,27,0.00
2013-3-20,70.8,60.0,49.3,46.8,33.9,29.6,61,39,23,30.28,29.95,19,5,20,0.00
2013-3-21,85.0,67.9,55.3,55.5,47.9,30.8,72,51,29,29.95,29.45,24,6,25,0.00
2013-3-22,71.5,61.0,49.9,56.9,47.8,41.0,88,63,36,29.75,29.55,18,5,18,0.00
2013-3-23,83.3,62.7,47.1,50.2,31.9,3.0,79,46,7,29.85,29.57,24,6,34,0.00
2013-3-24,59.9,45.3,33.2,41.2,19.0,8.1,69,38,13,30.23,29.85,20,5,23,0.00
2013-3-25,55.2,43.3,30.6,16.6,12.2,5.4,51,30,15,30.43,30.18,17,4,17,0.00
2013-3-26,66.8,49.4,30.4,24.1,16.2,10.4,56,30,11,30.49,30.20,20,4,20,0.00
2013-3-27,75.0,59.0,44.9,46.3,35.4,18.1,64,42,28,30.23,30.00,22,6,22,0.00
2013-3-28,80.6,65.3,50.3,54.3,50.3,45.6,85,61,38,30.08,29.95,18,5,18,0.00
2013-3-29,78.5,67.7,59.6,57.7,56.5,54.1,85,69,48,30.06,29.93,18,4,18,0.00
2013-3-30,88.9,72.4,59.9,60.6,55.8,46.5,87,60,25,30.04,29.77,19,4,19,0.00
2013-3-31,80.2,71.5,63.5,60.0,53.9,46.9,77,55,35,29.93,29.79,22,4,22,0.00
2013-4-1,87.7,71.2,53.1,59.7,51.2,46.2,81,53,25,30.01,29.76,19,4,21,0.00
2013-4-2,74.1,60.8,43.1,62.0,53.1,40.9,94,77,57,29.95,29.79,19,4,19,0.31
2013-4-3,49.2,43.7,41.3,40.9,39.2,37.6,92,84,71,30.24,29.93,14,3,14,0.00
2013-4-4,71.3,52.4,40.3,44.6,38.4,34.3,83,63,27,30.31,30.10,17,3,17,0.00
2013-4-5,79.9,59.8,39.9,47.5,41.7,37.1,92,58,23,30.23,29.94,12,3,17,0.00
2013-4-6,88.7,70.4,56.3,55.2,46.8,40.0,71,46,20,29.95,29.68,23,6,23,0.00
2013-4-7,92.4,74.2,58.6,60.8,53.9,34.3,87,56,13,29.77,29.57,17,4,17,0.00
2013-4-8,89.1,75.3,64.3,62.3,57.6,46.1,85,59,25,29.64,29.43,19,5,19,0.00
2013-4-10,60.7,55.2,47.4,36.7,34.8,31.2,63,47,35,30.00,29.88,14,4,16,0.16
2013-4-11,75.4,55.3,37.4,35.7,31.3,19.9,81,46,14,30.03,29.73,20,3,20,0.00
2013-4-12,83.2,64.9,43.6,46.0,38.8,33.6,79,43,18,29.93,29.73,15,4,18,0.00
2013-4-13,81.4,69.0,55.0,51.1,40.2,34.0,57,37,21,29.85,29.64,22,6,22,0.00
2013-4-14,93.5,75.7,57.9,57.1,39.8,19.5,82,39,7,29.69,29.45,28,5,28,0.00
2013-4-15,93.6,80.7,68.8,61.5,45.1,25.7,68,33,10,29.63,29.53,19,4,19,0.00
2013-4-16,95.5,80.7,67.6,65.1,61.3,48.8,83,54,31,29.73,29.58,20,4,23,0.00
2013-4-17,95.2,81.6,71.5,68.8,64.4,52.1,80,60,25,29.69,29.40,26,7,26,0.00
2013-4-18,75.6,56.8,44.7,67.9,36.5,21.5,94,52,20,30.15,29.49,33,5,33,0.22
2013-4-19,67.9,52.9,36.4,30.0,24.7,16.9,75,38,15,30.36,30.12,15,2,15,0.00
2013-4-20,70.8,54.5,48.5,30.1,27.0,24.3,48,35,20,30.14,30.02,23,5,23,0.00
2013-4-21,81.4,65.8,49.8,50.9,44.3,32.7,76,48,27,30.04,29.88,6,3,18,0.00
2013-4-22,88.4,72.3,59.3,57.9,54.0,48.8,82,56,26,29.96,29.69,9,6,24,0.00
2013-4-23,73.0,52.4,0.0,60.0,40.2,0.0,75,56,53,30.18,29.67,9,5,24,0.00
2013-4-24,0.0,0.0,0.0,0.0,0.0,0.0,0,0,100,30.33,30.19,7,7,0,0.00
2013-4-26,88.0,70.5,0.0,58.9,48.4,0.0,68,42,21,29.93,29.83,13,5,17,0.00
2013-4-27,82.3,77.1,66.1,49.7,44.0,40.4,46,31,24,30.01,29.91,12,4,19,0.00
2013-4-28,89.6,71.6,53.7,62.5,49.7,42.8,83,51,22,29.97,29.75,11,2,18,0.00
2013-4-29,87.2,73.7,57.0,56.3,50.3,46.5,72,47,25,29.84,29.65,10,3,20,0.00
2013-4-30,92.4,76.9,63.7,62.0,57.4,50.9,87,56,25,29.70,29.54,12,5,22,0.00
2013-5-1,95.1,79.1,68.3,65.1,59.8,52.7,82,55,25,29.88,29.63,10,5,22,0.02
2013-5-2,68.6,48.5,41.0,59.3,37.1,30.7,83,66,47,30.47,29.88,13,6,23,0.00
2013-5-3,69.0,53.2,38.5,33.4,23.3,15.2,61,36,13,30.48,30.07,13,3,15,0.00
2013-5-4,80.4,63.3,45.5,27.3,23.0,18.1,41,24,10,30.07,29.88,6,2,13,0.00
2013-5-5,76.9,62.8,50.0,39.1,33.4,25.2,52,34,21,30.17,29.99,10,3,16,0.00
2013-5-6,66.9,59.8,53.1,53.4,46.8,38.4,86,63,41,30.10,29.97,10,3,15,0.05
2013-5-7,84.9,68.5,50.1,52.6,48.5,45.2,83,53,29,30.04,29.82,11,4,21,0.00
2013-5-8,83.0,71.3,60.4,63.6,59.2,47.7,81,67,46,29.90,29.73,11,4,19,0.00
2013-5-9,79.3,71.0,63.4,68.6,62.9,59.3,95,76,57,29.87,29.74,14,4,23,0.40
2013-5-10,79.4,64.9,58.3,59.7,57.8,54.8,92,80,45,30.09,29.83,10,3,21,0.34
2013-5-11,77.5,66.6,53.8,55.9,50.8,44.5,94,62,32,30.17,30.05,9,2,21,0.01
2013-5-12,78.5,67.4,56.0,53.2,48.1,43.4,76,53,29,30.25,30.08,7,2,13,0.00
2013-5-13,87.1,71.8,53.4,51.5,44.1,36.6,74,42,17,30.21,30.03,11,3,16,0.00
2013-5-14,85.2,73.5,62.1,61.0,55.8,49.0,90,55,40,30.10,29.86,12,4,23,0.34
2013-5-15,91.8,73.0,60.6,65.7,59.0,50.8,95,69,25,30.00,29.64,10,3,19,0.22
2013-5-16,101.0,83.6,68.0,68.5,58.9,42.4,87,51,14,29.70,29.56,10,3,16,0.00
2013-5-17,104.8,88.0,71.5,66.3,54.6,34.1,68,39,9,29.71,29.61,10,2,17,0.00
2013-5-18,97.2,86.5,75.2,71.5,66.1,59.9,76,52,30,29.70,29.57,14,5,23,0.00
2013-5-19,99.3,88.9,71.7,66.6,44.4,22.8,76,30,7,29.68,29.54,18,4,21,0.00
2013-5-20,101.0,85.5,73.5,70.9,55.0,20.4,83,46,6,29.67,29.52,19,3,19,0.00
2013-5-21,92.5,79.3,68.7,69.6,58.6,36.7,83,53,15,29.80,29.56,25,5,25,0.00
2013-5-22,96.0,78.5,57.3,63.1,51.5,45.9,77,43,19,29.87,29.66,20,3,20,0.00
2013-5-23,93.6,81.9,64.5,70.8,66.8,59.6,94,62,40,30.02,29.69,27,6,27,0.30
2013-5-24,79.7,70.4,62.1,64.8,62.3,60.0,96,77,57,30.08,29.86,22,4,22,0.93
2013-5-25,85.8,75.4,66.2,68.4,65.5,63.0,91,73,52,30.05,29.85,21,4,21,0.00
2013-5-26,89.0,77.7,64.0,69.9,65.3,58.5,93,67,47,29.99,29.79,21,5,21,0.55
2013-5-27,86.3,78.6,72.4,70.3,68.4,66.8,84,71,57,29.85,29.67,23,6,23,0.00
2013-5-28,82.2,76.0,71.2,69.3,67.3,65.7,85,75,58,29.75,29.54,25,7,25,0.02
2013-5-29,88.4,79.1,70.3,69.2,67.3,65.9,87,69,50,29.65,29.50,26,7,26,0.00
2013-5-30,96.7,83.5,73.7,70.0,66.9,56.6,84,61,28,29.67,29.57,24,6,24,0.00
2013-5-31,97.0,84.5,73.5,72.9,70.0,67.4,88,64,39,29.72,29.56,24,6,24,0.00
2013-6-1,90.1,82.8,75.3,72.2,67.7,56.8,84,62,46,29.88,29.59,21,5,21,0.00
2013-6-2,90.5,79.1,69.1,60.1,56.3,51.1,65,47,31,30.02,29.79,18,4,18,0.00
2013-6-3,95.0,81.1,68.2,69.4,62.3,54.9,67,54,35,29.91,29.68,19,4,19,0.00
2013-6-4,101.5,87.3,73.8,69.5,64.8,59.5,73,50,29,29.75,29.58,19,6,20,0.00
2013-6-5,101.4,84.1,68.9,66.3,60.8,53.6,81,49,21,29.73,29.57,17,4,29,0.17
2013-6-6,87.2,76.2,65.2,65.0,62.1,57.1,85,63,46,29.89,29.69,17,4,26,0.00
2013-6-7,81.7,72.2,65.6,64.6,60.5,52.7,93,69,37,29.99,29.81,17,3,17,0.18
2013-6-8,88.8,76.0,62.0,66.9,61.3,55.4,82,62,45,29.89,29.66,19,4,19,0.00
2013-6-9,90.0,78.9,64.8,69.0,64.7,58.8,96,65,38,29.91,29.71,19,3,19,0.17
2013-6-10,97.1,82.4,67.8,71.1,61.5,45.9,91,56,18,29.93,29.80,11,3,18,0.00
2013-6-11,95.9,83.5,72.2,69.8,64.2,59.6,81,55,32,29.92,29.79,17,4,17,0.00
2013-6-12,92.7,81.9,71.4,68.6,65.5,62.0,85,60,40,29.95,29.81,20,4,20,0.00
2013-6-13,83.0,76.5,73.0,70.7,68.3,66.5,84,76,63,29.96,29.88,18,3,18,0.00
2013-6-14,83.8,75.7,66.7,69.3,67.1,64.2,92,75,57,29.94,29.84,7,3,18,0.10
2013-6-15,84.3,75.5,67.7,70.9,67.9,65.1,92,78,59,29.94,29.82,6,3,16,0.15
2013-6-16,95.0,87.4,69.4,72.8,70.0,66.3,91,58,43,29.95,29.77,16,4,16,0.00
2013-6-17,96.8,84.2,71.8,72.2,69.3,61.3,90,64,37,29.93,29.71,20,4,20,0.11
2013-6-18,89.2,76.8,65.8,68.2,64.9,62.2,92,69,45,29.97,29.82,20,3,20,0.25
2013-6-19,95.8,83.2,70.8,71.2,66.1,61.4,88,59,33,29.87,29.77,18,4,18,0.00
2013-6-20,93.8,83.9,75.3,68.3,66.4,63.7,77,57,40,29.91,29.77,22,6,22,0.00
2013-6-21,93.3,84.1,75.3,69.6,66.1,61.1,81,57,37,29.93,29.80,24,6,24,0.00
2013-6-22,95.2,84.2,74.2,68.9,63.2,56.8,80,52,29,29.88,29.74,27,6,27,0.00
2013-6-23,95.2,84.4,74.5,68.2,63.3,57.5,66,51,30,29.83,29.71,23,6,23,0.00
2013-6-24,93.5,82.8,73.0,69.3,65.8,62.3,78,58,37,29.88,29.74,22,6,25,0.00
2013-6-25,99.5,86.6,76.5,70.2,67.7,62.5,78,56,34,29.85,29.69,20,6,20,0.00
2013-6-26,102.5,88.2,75.8,72.0,67.5,63.4,77,53,29,29.81,29.70,14,5,18,0.00
2013-6-27,103.3,88.8,76.5,70.0,61.0,47.6,76,45,17,29.90,29.78,17,3,17,0.00
2013-6-28,103.4,88.2,70.8,68.6,59.1,52.8,67,40,22,29.93,29.74,13,1,13,0.00
2013-6-29,104.6,90.9,78.0,68.3,60.8,54.5,62,39,21,29.83,29.66,14,2,14,0.00
2013-6-30,92.3,81.5,69.7,68.0,64.3,58.2,92,58,36,29.89,29.73,20,2,22,0.12
2013-7-1,85.0,76.4,67.5,65.6,57.9,47.9,78,54,36,30.06,29.85,16,2,16,0.00
2013-7-2,88.5,76.4,63.1,53.7,48.3,41.1,66,40,22,30.10,29.93,17,2,17,0.00
2013-7-3,92.9,77.2,60.3,51.1,44.8,38.8,61,35,16,30.03,29.84,13,2,13,0.00
2013-7-4,94.1,79.1,64.7,61.2,51.1,42.8,58,39,23,29.92,29.76,16,2,16,0.00
2013-7-5,96.8,84.7,70.9,59.5,53.4,47.2,59,36,20,29.88,29.70,19,4,19,0.00
2013-7-6,96.5,85.1,72.0,61.1,55.8,50.0,63,39,22,29.84,29.69,18,4,18,0.00
2013-7-7,96.3,84.7,71.2,66.6,59.5,54.1,70,45,27,29.89,29.77,24,3,24,0.00
2013-7-8,95.8,84.5,74.7,69.9,66.1,57.7,78,56,36,29.98,29.84,16,3,18,0.00
2013-7-9,96.8,84.5,72.5,69.1,64.3,59.6,81,54,32,30.03,29.88,19,4,19,0.00
2013-7-10,100.1,86.8,73.1,70.9,64.1,57.5,80,50,27,30.01,29.79,14,3,14,0.00
2013-7-11,97.4,87.6,76.5,68.4,62.9,58.3,72,46,28,29.90,29.74,15,2,15,0.00
2013-7-12,100.0,87.7,75.5,69.2,58.6,44.8,67,41,17,29.86,29.75,8,2,15,0.00
2013-7-13,100.7,87.9,74.4,65.5,54.8,48.6,55,35,18,29.91,29.75,17,2,17,0.00
2013-7-14,101.0,85.4,70.5,63.7,57.3,51.4,79,41,21,29.82,29.66,25,4,25,0.00
2013-7-15,70.5,66.1,63.1,65.6,63.8,61.0,96,92,79,30.01,29.79,21,4,21,1.42
2013-7-16,80.7,70.1,66.1,72.4,67.8,64.9,97,93,73,30.11,29.99,20,2,20,0.73
2013-7-17,81.2,73.2,69.4,72.8,69.2,67.4,96,88,68,30.16,30.04,15,2,15,0.46
2013-7-18,83.0,72.7,68.7,73.7,68.9,66.9,97,89,59,30.13,29.98,23,2,23,0.69
2013-7-19,90.7,78.0,66.4,72.1,67.4,63.8,97,73,45,30.04,29.85,8,1,11,0.01
2013-7-20,92.4,81.5,70.8,70.1,66.6,61.6,86,63,37,29.91,29.75,13,2,13,0.00
2013-7-21,92.3,81.3,70.6,72.0,68.8,65.8,90,68,45,29.87,29.75,16,2,16,0.00
2013-7-22,94.2,83.4,74.1,73.3,70.5,68.5,88,67,45,29.88,29.75,18,3,18,0.00
2013-7-23,96.0,85.2,74.8,74.9,70.7,65.0,88,64,42,29.86,29.75,18,3,18,0.00
2013-7-24,97.7,86.0,72.8,72.3,66.7,60.5,76,54,35,29.89,29.77,15,2,15,0.00
2013-7-25,97.7,86.2,73.8,71.8,67.7,61.7,78,56,34,29.94,29.83,13,2,13,0.00
2013-7-26,98.2,85.8,77.8,72.0,67.4,59.8,74,55,38,29.94,29.79,19,3,19,0.00
2013-7-27,90.3,80.7,70.8,68.2,63.5,57.1,83,58,35,29.97,29.82,17,3,17,0.00
2013-7-28,97.5,81.7,65.2,70.4,64.2,58.3,89,58,31,29.89,29.71,14,2,14,0.00
2013-7-29,96.9,85.9,77.0,73.5,67.9,58.3,80,58,34,29.86,29.78,17,3,19,0.00
2013-7-30,100.3,87.0,77.6,71.8,67.5,61.3,78,54,35,29.95,29.83,15,3,15,0.00
2013-7-31,100.0,88.5,76.8,70.3,65.6,61.1,78,49,29,29.99,29.83,12,3,13,0.00
2013-8-1,101.3,87.7,74.0,68.0,62.7,58.9,65,46,27,29.96,29.80,8,2,13,0.00
2013-8-2,102.0,89.5,75.8,65.7,61.9,56.4,66,42,23,29.87,29.73,17,3,17,0.00
2013-8-3,100.6,88.4,76.6,65.3,60.6,55.9,64,41,25,29.88,29.78,17,4,18,0.00
2013-8-4,100.3,88.6,77.5,70.1,64.1,56.4,77,47,26,29.95,29.77,16,4,16,0.00
2013-8-5,100.3,88.5,76.6,68.7,63.9,57.3,69,46,27,29.91,29.72,16,4,18,0.00
2013-8-6,104.5,88.5,76.7,69.3,64.3,58.1,73,47,24,29.81,29.65,23,3,23,0.00
2013-8-7,106.0,88.4,77.0,71.6,63.7,57.3,77,47,21,29.80,29.61,33,3,33,0.05
2013-8-8,103.6,84.6,71.9,71.5,66.5,57.6,90,60,23,29.79,29.63,23,3,23,0.09
2013-8-9,102.0,86.0,72.2,70.7,65.4,58.7,84,55,25,29.90,29.76,15,2,15,0.00
2013-8-10,94.7,84.6,75.5,71.2,68.3,64.1,79,60,37,30.02,29.87,17,4,18,0.00
2013-8-11,96.3,84.9,72.0,69.8,66.1,61.0,84,56,32,30.00,29.86,15,2,15,0.00
2013-8-12,97.2,85.0,72.0,69.8,65.7,61.7,86,55,34,29.97,29.82,14,3,14,0.00
2013-8-13,99.2,87.4,75.9,69.9,64.1,60.0,75,49,29,29.94,29.79,15,3,15,0.00
2013-8-14,86.5,81.9,77.0,69.5,64.8,59.7,72,57,41,29.98,29.83,17,3,18,0.00
2013-8-15,96.1,81.5,71.4,69.7,66.3,63.0,80,62,36,29.96,29.83,17,2,17,0.00
2013-8-16,96.3,78.8,66.6,66.3,61.2,51.8,89,60,23,30.11,29.87,27,3,27,0.00
2013-8-17,94.0,81.0,67.7,65.3,60.5,54.5,83,54,27,30.02,29.85,18,3,18,0.00
2013-8-18,96.1,82.4,69.3,63.9,58.8,55.3,68,47,30,29.99,29.84,18,3,18,0.00
2013-8-19,97.8,83.9,68.9,62.8,59.1,56.2,67,45,28,29.96,29.80,15,2,15,0.00
2013-8-20,95.1,83.8,73.1,63.9,59.2,53.5,66,45,31,29.93,29.83,16,3,18,0.00
2013-8-21,93.5,81.9,69.4,68.7,61.8,53.7,81,53,30,30.00,29.86,16,2,16,0.00
2013-8-22,95.9,84.0,71.6,68.7,64.8,58.8,80,55,32,30.01,29.83,13,3,16,0.00
2013-8-23,93.5,77.9,69.8,70.4,66.2,63.0,95,70,40,29.96,29.84,27,2,27,0.39
2013-8-24,95.1,80.7,68.0,72.2,67.5,63.3,95,68,36,30.03,29.88,14,1,14,0.00
2013-8-25,94.3,83.9,72.0,70.6,65.7,60.1,83,56,35,30.04,29.91,18,2,18,0.00
2013-8-26,90.0,80.9,70.8,69.0,65.3,63.4,80,60,43,30.07,29.93,19,3,19,0.00
2013-8-27,84.9,77.3,68.5,71.1,67.3,63.3,87,72,58,30.02,29.93,20,3,20,0.00
2013-8-28,93.6,80.5,70.5,70.2,64.7,56.2,90,63,30,30.05,29.92,16,3,16,0.00
2013-8-29,97.1,82.7,69.1,69.1,62.6,57.9,82,53,30,30.04,29.89,13,2,13,0.00
2013-8-30,98.8,85.0,68.7,67.1,60.9,58.4,74,47,27,29.98,29.80,12,2,15,0.00
2013-8-31,100.5,86.7,70.1,64.3,60.6,57.1,69,44,24,29.87,29.71,17,2,17,0.00
2013-9-1,100.5,86.6,70.9,66.3,62.7,58.2,76,47,26,29.83,29.71,14,2,14,0.00
2013-9-2,93.5,82.2,73.8,69.0,63.3,56.0,82,54,29,29.97,29.78,16,3,16,0.00
2013-9-3,95.9,82.4,69.5,68.3,63.8,60.7,80,56,33,29.98,29.83,14,2,14,0.00
2013-9-4,97.7,84.6,71.5,64.7,57.8,46.5,73,44,18,29.99,29.87,16,2,16,0.00
2013-9-5,94.7,83.4,71.2,68.9,63.4,56.0,73,53,32,30.03,29.91,14,2,14,0.00
2013-9-6,95.5,83.5,70.6,70.5,64.0,56.1,85,55,29,30.03,29.86,14,2,14,0.00
2013-9-7,95.3,83.2,68.7,69.1,62.4,57.6,83,53,30,29.97,29.81,14,2,14,0.00
2013-9-8,92.2,79.8,70.4,69.9,65.4,61.0,83,63,37,29.90,29.75,21,3,21,0.00
2013-9-9,90.2,78.4,67.3,67.8,64.8,60.8,90,66,40,29.92,29.79,21,4,21,0.00
2013-9-10,84.4,76.3,70.4,71.1,67.1,64.4,92,74,57,29.99,29.88,16,3,18,0.07
2013-9-11,91.6,78.2,68.4,68.2,65.4,60.5,93,68,36,30.06,29.90,19,3,19,0.00
2013-9-12,91.5,78.8,67.2,68.9,62.3,54.4,91,61,31,30.03,29.87,16,2,16,0.00
2013-9-13,93.2,79.7,65.5,67.1,58.8,49.7,80,52,24,29.93,29.75,16,2,17,0.00
2013-9-14,92.6,79.7,65.0,63.8,59.4,55.2,76,52,34,29.90,29.76,16,2,16,0.00
2013-9-15,92.2,81.2,69.7,67.3,61.5,57.4,76,53,32,29.93,29.84,15,3,15,0.00
2013-9-16,91.5,80.7,72.6,68.7,64.3,56.6,74,58,37,30.00,29.87,18,2,18,0.00
2013-9-17,86.6,78.9,72.4,70.1,66.0,62.0,81,66,47,30.01,29.86,13,2,13,0.00
2013-9-18,90.0,79.6,72.0,69.6,66.5,62.9,88,66,43,29.95,29.78,16,3,16,0.00
2013-9-19,79.0,72.2,69.1,70.9,68.7,66.5,97,89,66,29.90,29.82,12,2,12,1.97
2013-9-20,70.2,68.3,64.3,69.3,66.8,63.4,97,95,88,29.95,29.80,21,3,21,0.64
2013-9-21,79.3,69.5,60.6,64.1,56.1,48.4,92,66,36,30.02,29.87,15,2,15,0.27
2013-9-22,82.3,68.0,53.6,58.4,51.7,44.3,95,61,28,29.91,29.75,13,1,13,0.15
2013-9-23,90.0,72.3,55.8,61.8,54.5,47.9,79,56,35,29.79,29.67,16,3,16,0.04
2013-9-24,89.6,75.4,61.1,61.6,56.2,50.3,89,56,29,29.91,29.78,11,1,11,0.00
2013-9-25,92.0,76.6,61.3,64.7,59.2,56.2,88,59,31,29.85,29.69,14,2,15,0.00
2013-9-26,90.3,77.9,67.2,67.2,61.9,58.4,77,59,39,29.79,29.69,18,4,18,0.00
2013-9-27,86.0,77.9,71.0,71.3,67.8,61.0,86,72,58,29.79,29.68,20,4,20,0.00
2013-9-28,78.2,70.1,63.2,73.7,64.8,55.1,95,84,69,30.06,29.72,15,3,15,1.24
2013-9-29,80.0,67.6,56.6,57.1,52.7,44.2,93,63,30,30.11,29.92,12,1,12,0.00
2013-9-30,89.5,71.4,53.5,64.7,57.7,49.8,95,66,32,29.93,29.73,13,2,14,0.00
2013-10-1,91.4,77.2,64.0,68.3,63.6,58.6,95,66,35,29.81,29.71,15,3,15,0.00
2013-10-2,89.3,78.6,70.2,69.9,67.0,63.6,91,69,47,29.85,29.72,17,4,17,0.00
2013-10-3,90.5,78.5,67.8,69.7,65.5,62.4,92,67,42,29.82,29.68,20,4,20,0.00
2013-10-4,89.3,79.4,73.1,69.6,67.1,63.0,83,67,46,29.80,29.69,24,4,24,0.00
2013-10-5,76.2,60.8,47.5,66.5,50.5,38.6,92,70,45,30.13,29.76,14,2,18,0.14
2013-10-6,78.3,59.8,42.0,47.2,39.9,28.9,95,57,17,30.25,30.11,13,1,13,0.00
2013-10-7,84.0,65.3,45.4,45.4,40.5,33.0,79,45,17,30.19,30.03,8,1,8,0.00
2013-10-8,83.7,65.9,48.2,50.5,44.9,40.9,88,51,24,30.05,29.89,15,2,15,0.00
2013-10-9,84.9,69.0,55.2,58.2,52.3,44.2,75,57,38,29.98,29.84,18,3,18,0.00
2013-10-10,86.0,72.8,61.5,62.6,57.3,51.7,87,61,33,29.92,29.74,21,4,21,0.00
2013-10-11,89.5,76.1,66.4,67.7,59.3,44.8,89,60,23,29.85,29.72,18,3,18,0.00
2013-10-12,88.4,75.6,65.2,70.4,64.2,55.7,86,69,45,29.97,29.81,14,2,14,0.00
2013-10-13,77.8,70.1,65.5,69.1,65.8,61.8,94,86,69,30.08,29.95,16,3,16,0.22
2013-10-14,79.6,71.1,67.1,70.6,67.5,65.6,96,89,73,30.06,29.82,17,2,17,0.16
2013-10-15,71.7,60.9,48.5,68.8,58.9,47.0,96,93,89,30.09,29.85,16,2,16,0.77
2013-10-16,62.6,54.8,47.9,50.7,47.9,46.2,95,79,62,30.16,30.06,12,2,17,0.01
2013-10-17,74.0,58.2,42.9,55.9,49.6,41.6,96,75,47,30.16,29.93,11,1,11,0.00
2013-10-18,75.2,62.3,47.4,63.5,56.7,40.6,93,82,66,30.15,29.83,19,3,30,0.34
2013-10-19,63.6,50.2,38.4,43.5,38.8,34.6,90,68,35,30.28,30.10,15,2,16,0.00
2013-10-20,76.5,59.1,42.0,57.8,49.9,39.9,95,73,51,30.10,29.81,17,3,17,0.00
2013-10-21,69.0,61.1,54.1,57.1,53.1,48.4,94,76,57,30.15,29.85,17,2,17,0.00
2013-10-22,74.5,57.5,41.4,49.7,43.9,39.2,95,66,30,30.24,30.10,8,1,8,0.00
2013-10-23,78.8,60.4,43.1,48.2,43.1,38.4,88,58,25,30.19,30.06,14,2,15,0.00
2013-10-24,77.8,60.5,44.9,52.4,46.6,42.0,93,64,35,30.22,30.10,14,2,14,0.00
2013-10-25,76.2,60.8,48.4,55.8,49.6,44.6,88,69,37,30.31,30.13,16,2,16,0.00
2013-10-26,79.4,67.6,59.3,62.4,58.7,52.6,90,74,54,30.15,30.00,21,2,21,0.00
2013-10-27,71.3,62.2,55.5,58.9,53.7,49.7,90,74,57,30.14,29.95,10,1,10,0.00
2013-10-28,81.4,69.0,56.8,66.5,61.5,54.6,94,79,55,29.99,29.84,19,3,19,0.00
2013-10-29,81.0,73.9,69.4,68.6,66.5,63.3,92,78,64,29.96,29.85,13,4,17,0.12
2013-10-30,73.0,70.6,68.3,68.8,66.9,63.3,93,88,81,29.90,29.70,18,4,18,0.07
2013-10-31,73.7,66.1,50.9,63.5,41.9,27.2,81,46,18,29.92,29.71,24,4,24,0.00
2013-11-1,75.0,59.7,45.2,41.8,36.3,31.1,70,45,20,30.17,29.83,19,3,19,0.00
2013-11-2,69.7,55.2,39.7,41.0,35.1,28.1,86,52,22,30.36,30.17,12,1,12,0.00
2013-11-3,65.4,52.7,40.7,47.7,39.6,34.5,85,63,35,30.20,29.89,23,4,23,0.01
2013-11-4,71.6,61.6,56.3,56.4,51.7,45.7,89,70,58,29.99,29.89,16,4,16,0.00
2013-11-5,75.3,65.7,58.0,63.0,59.9,54.8,93,82,64,29.95,29.82,27,2,27,0.00
2013-11-6,63.2,55.0,43.2,59.7,40.1,30.7,94,60,30,30.39,29.94,11,3,18,0.05
2013-11-7,58.8,47.8,36.1,39.8,32.4,21.0,85,59,25,30.56,30.39,8,1,10,0.00
2013-11-8,57.9,49.9,46.5,45.9,41.6,37.2,89,74,48,30.41,30.13,14,2,14,0.03
2013-11-9,74.8,56.3,40.6,54.7,47.4,38.5,93,75,48,30.15,30.03,13,2,13,0.00
2013-11-10,68.5,55.6,46.0,57.3,51.5,44.7,96,87,66,30.30,30.14,12,1,12,0.00
2013-11-11,71.6,61.3,54.6,58.7,55.5,52.6,96,82,59,30.27,30.13,11,1,11,0.00
2013-11-12,58.4,46.3,34.7,54.0,34.6,18.8,90,66,35,30.71,30.24,25,4,25,0.00
2013-11-13,54.4,39.0,26.2,27.4,19.1,12.3,73,48,20,30.72,30.39,9,1,9,0.00
2013-11-14,62.4,47.5,32.7,41.7,34.5,26.9,83,62,46,30.39,29.99,18,4,18,0.00
2013-11-15,77.8,59.2,42.3,53.3,48.0,40.2,93,69,39,30.02,29.79,14,2,14,0.00
2013-11-16,80.5,67.4,57.1,60.8,56.6,51.5,85,70,47,29.81,29.62,17,4,17,0.00
2013-11-17,81.5,67.8,54.0,60.6,50.8,41.1,93,60,25,29.95,29.69,23,3,23,0.00
2013-11-18,65.1,58.0,51.3,44.0,40.6,35.6,72,53,39,30.13,29.94,0,0,0,0.00
2013-11-19,77.3,64.5,54.3,59.1,52.3,43.0,84,65,49,30.10,29.86,16,3,16,0.00
2013-11-20,72.9,64.5,57.2,61.2,58.2,52.5,88,80,66,29.89,29.76,19,4,19,0.00
2013-11-21,78.3,67.2,43.2,65.3,59.7,34.3,94,77,60,30.19,29.84,23,3,23,0.00
2013-11-22,43.0,32.2,29.7,34.6,28.0,25.2,91,85,71,30.57,30.18,19,5,19,0.00
2013-11-23,33.6,31.2,29.4,30.5,27.9,24.9,93,88,72,30.65,30.55,17,4,17,0.00
2013-11-24,32.5,31.7,30.8,30.8,29.7,27.5,95,92,87,30.65,30.32,17,2,17,0.00
2013-11-25,37.6,34.5,30.7,35.5,32.0,29.0,95,90,84,30.37,30.19,12,1,12,0.02
2013-11-26,51.4,40.5,33.1,33.0,30.1,27.6,88,69,41,30.48,30.28,18,3,18,0.00
2013-11-27,47.7,37.4,26.5,30.9,26.8,20.6,91,67,45,30.56,30.37,10,1,10,0.00
2013-11-28,58.2,42.6,29.9,33.9,30.4,26.1,88,65,38,30.43,30.31,14,2,14,0.00
2013-11-29,61.6,44.3,28.5,42.6,35.6,25.8,92,73,48,30.50,30.33,16,2,16,0.00
2013-11-30,70.0,55.3,40.8,52.1,48.0,38.5,96,78,52,30.35,30.13,20,3,20,0.00
2013-12-1,64.8,57.0,47.3,56.0,52.3,45.7,96,85,69,30.18,29.96,13,2,13,0.00
2013-12-2,75.2,58.5,44.5,50.8,40.8,33.0,91,58,22,29.96,29.69,23,2,23,0.00
2013-12-3,81.5,62.5,45.3,43.2,34.5,27.5,60,38,16,29.71,29.57,18,3,18,0.00
2013-12-4,83.1,66.3,54.2,53.0,47.6,38.8,70,53,29,29.78,29.60,18,3,18,0.00
2013-12-5,53.4,31.6,23.9,39.0,22.2,13.0,89,69,47,30.24,29.77,22,6,22,0.01
2013-12-6,30.5,25.3,21.8,22.8,19.9,14.0,90,80,68,30.60,30.18,16,4,16,0.00
2013-12-7,24.4,21.2,17.8,17.4,13.3,9.3,79,71,65,30.64,30.32,15,4,15,0.00
2013-12-8,54.1,34.7,22.5,39.4,28.1,17.1,92,78,57,30.33,30.05,12,1,12,0.17
2013-12-9,33.9,29.3,27.1,30.5,27.3,23.6,94,92,85,30.53,30.10,15,3,15,0.00
2013-12-10,47.9,33.6,22.8,27.9,24.5,20.1,91,72,41,30.60,30.35,12,2,13,0.00
2013-12-11,50.4,38.3,28.3,30.2,27.0,23.5,88,65,39,30.65,30.34,14,2,14,0.00
2013-12-12,45.7,35.8,24.4,34.5,28.5,21.5,91,75,56,30.65,30.32,8,1,8,0.00
2013-12-13,66.8,51.0,40.6,44.2,39.8,34.0,81,66,41,30.32,29.83,19,4,19,0.00
2013-12-14,54.2,45.7,32.1,37.6,28.0,23.3,75,51,31,30.42,29.91,18,4,18,0.00
2013-12-15,62.7,42.6,26.0,32.3,26.9,22.1,88,59,25,30.44,30.27,14,2,14,0.00
2013-12-16,69.9,49.7,34.6,33.6,29.1,25.6,70,48,22,30.31,30.17,14,2,14,0.00
2013-12-17,69.8,52.2,36.6,38.3,34.2,29.3,75,53,30,30.33,30.22,10,1,10,0.00
2013-12-18,70.5,51.9,33.5,48.5,39.8,30.1,89,67,34,30.28,29.95,20,4,20,0.00
2013-12-19,71.4,60.3,54.4,53.6,51.4,47.1,87,73,49,29.95,29.70,17,7,25,0.00
2013-12-20,61.2,51.6,35.5,55.7,48.6,33.5,95,90,79,29.84,29.68,17,3,17,0.27
2013-12-21,60.5,49.7,37.8,47.5,38.7,33.3,96,70,38,29.83,29.60,26,4,26,0.52
2013-12-22,48.1,40.9,30.2,36.8,29.4,23.7,90,65,39,30.41,29.82,15,3,15,0.00
2013-12-23,58.7,39.9,26.3,34.5,29.6,23.5,91,70,39,30.56,30.41,12,1,12,0.00
2013-12-24,59.9,44.8,29.9,35.0,31.3,27.2,92,63,34,30.54,30.21,21,4,21,0.00
2013-12-25,50.6,43.0,34.4,35.9,31.2,26.0,86,64,48,30.48,30.20,20,2,20,0.00
2013-12-26,52.9,39.5,27.4,32.1,26.7,22.6,93,64,33,30.51,30.36,7,1,7,0.00
2013-12-27,52.9,42.5,31.6,43.0,33.2,25.3,92,70,50,30.50,30.35,7,1,7,0.00
2013-12-28,53.0,47.7,42.6,46.0,43.8,40.9,95,87,74,30.35,29.97,18,3,18,0.00
2013-12-29,50.6,39.8,28.5,46.0,35.4,20.5,91,84,68,30.38,29.94,21,4,21,0.00
2013-12-30,55.1,37.4,24.8,29.4,24.5,19.6,82,61,36,30.46,30.29,9,1,9,0.00
2013-12-31,60.3,42.7,26.2,34.8,29.5,23.4,91,63,34,30.47,30.19,14,2,15,0.00
2014-1-1,70.0,50.3,37.1,42.8,34.6,27.2,79,57,30,30.28,29.94,21,5,21,0.00
2014-1-2,49.7,37.2,27.5,31.2,24.1,21.5,79,60,37,30.54,30.27,16,2,16,0.00